GW0531 Weather Reports


time (UTC)temp
C
wind
direction
speed
KPH
gust
KPH
rain 1hr
cm
rain 24hr
cm
rain mn
cm
humidity
%
barometer
mb
20260906113702 22 319 0.0 0.0 0.00 0.00 0.00 96 1011.7
20260906113201 21 280 0.0 0.0 0.00 0.00 0.00 96 1011.8
20260906112700 21 290 0.0 0.0 0.00 0.00 0.00 96 1011.6
20260906112158 21 290 0.0 1.6 0.00 0.00 0.00 96 1011.8
20260906111657 21 310 0.0 0.0 0.00 0.00 0.00 96 1011.8
20260906111151 21 89 0.0 1.6 0.00 0.00 0.00 96 1011.8
20260906110646 21 164 0.0 1.6 0.00 0.00 0.00 96 1011.6
20260906110142 21 246 1.6 3.2 0.00 0.00 0.00 96 1011.7
20260906105636 21 269 0.0 0.0 0.00 0.00 0.00 96 1011.3
20260906105132 21 183 0.0 1.6 0.00 0.00 0.00 96 1011.3
20260906104631 21 306 0.0 1.6 0.00 0.00 0.00 96 1011.5
20260906104131 21 214 0.0 1.6 0.00 0.00 0.00 96 1011.4
20260906103629 21 160 0.0 0.0 0.00 0.00 0.00 96 1011.5
20260906103124 22 160 0.0 0.0 0.00 0.00 0.00 96 1011.4
20260906102620 22 163 1.6 1.6 0.00 0.00 0.00 95 1011.3
20260906102114 22 269 0.0 1.6 0.00 0.00 0.00 95 1011.3
20260906101615 22 300 0.0 1.6 0.00 0.00 0.00 95 1011.0
20260906101114 22 269 1.6 3.2 0.00 0.00 0.00 95 1011.3
20260906100610 22 297 0.0 1.6 0.00 0.00 0.00 95 1011.1
20260906100110 22 343 0.0 1.6 0.00 0.00 0.00 95 1011.0
20260906095610 22 297 0.0 0.0 0.00 0.00 0.00 95 1011.1
20260906095106 22 309 0.0 1.6 0.00 0.00 0.00 95 1010.9
20260906094604 22 103 0.0 0.0 0.00 0.00 0.00 95 1010.9
20260906094101 22 117 0.0 1.6 0.00 0.00 0.00 95 1010.8
20260906093556 22 256 0.0 0.0 0.00 0.00 0.00 95 1010.8
20260906093051 22 315 0.0 1.6 0.00 0.00 0.00 95 1010.7
20260906092546 22 309 0.0 1.6 0.00 0.00 0.00 94 1010.8
20260906092041 22 309 0.0 0.0 0.00 0.00 0.00 94 1010.5
20260906091537 22 230 0.0 0.0 0.00 0.00 0.00 94 1010.7
20260906091033 22 326 0.0 0.0 0.00 0.00 0.00 94 1010.7
20260906090534 22 230 0.0 1.6 0.00 0.00 0.00 94 1010.5
20260906090034 22 336 0.0 1.6 0.00 0.00 0.00 94 1010.7
20260906085532 22 251 1.6 1.6 0.00 0.00 0.00 94 1010.6
20260906085033 22 300 3.2 3.2 0.00 0.00 0.00 94 1010.6
20260906084533 22 323 0.0 1.6 0.00 0.00 0.00 94 1010.7
20260906084031 22 296 1.6 1.6 0.00 0.00 0.00 94 1010.6
20260906083527 22 319 0.0 1.6 0.00 0.00 0.00 94 1010.6
20260906083027 22 297 0.0 1.6 0.00 0.00 0.00 94 1010.7
20260906082522 22 311 1.6 3.2 0.00 0.00 0.00 94 1010.6
20260906082018 22 336 0.0 1.6 0.00 0.00 0.00 94 1010.7
20260906081514 22 242 0.0 0.0 0.00 0.00 0.00 94 1010.8
20260906081009 22 319 0.0 1.6 0.00 0.00 0.00 94 1010.8
20260906080506 22 346 0.0 1.6 0.00 0.00 0.00 94 1010.9
20260906080002 22 315 0.0 1.6 0.00 0.00 0.00 94 1011.0
20260906075456 22 280 0.0 3.2 0.00 0.00 0.00 94 1011.1
20260906074951 22 321 0.0 1.6 0.00 0.00 0.00 94 1011.0
20260906074450 22 243 0.0 1.6 0.00 0.00 0.00 94 1011.0
20260906073949 22 228 1.6 1.6 0.00 0.00 0.00 94 1011.3
20260906073444 22 273 1.6 3.2 0.00 0.00 0.00 93 1011.2
20260906072940 22 331 0.0 3.2 0.00 0.00 0.00 93 1011.1
20260906072435 22 313 0.0 3.2 0.00 0.00 0.00 93 1011.0
20260906071931 22 164 0.0 0.0 0.00 0.00 0.00 93 1011.0
20260906071427 22 164 0.0 0.0 0.00 0.00 0.00 93 1011.1
20260906070923 22 181 0.0 1.6 0.00 0.00 0.00 92 1011.1
20260906070418 22 309 0.0 0.0 0.00 0.00 0.00 92 1011.1
20260906065914 22 311 0.0 1.6 0.00 0.00 0.00 92 1011.3
20260906065408 22 293 0.0 1.6 0.00 0.00 0.00 92 1011.5
20260906064904 22 269 3.2 3.2 0.00 0.00 0.00 91 1011.6
20260906064400 22 309 1.6 1.6 0.00 0.00 0.00 91 1011.5
20260906063900 22 348 1.6 1.6 0.00 0.00 0.00 91 1011.6
20260906063355 22 205 0.0 0.0 0.00 0.00 0.00 91 1011.6
20260906062850 22 154 0.0 0.0 0.00 0.00 0.00 90 1011.7
20260906062349 23 36 0.0 1.6 0.00 0.00 0.00 90 1011.6
20260906061845 23 26 0.0 3.2 0.00 0.00 0.00 90 1011.7
20260906061341 23 340 1.6 1.6 0.00 0.00 0.00 90 1011.5
20260906060836 23 322 0.0 0.0 0.00 0.00 0.00 90 1011.6
20260906060334 23 345 0.0 0.0 0.00 0.00 0.00 90 1011.4
20260906055829 23 242 0.0 0.0 0.00 0.00 0.00 89 1011.5
20260906055325 23 150 0.0 0.0 0.00 0.00 0.00 89 1011.6
20260906054820 23 154 0.0 0.0 0.00 0.00 0.00 89 1011.3
20260906054315 23 235 0.0 0.0 0.00 0.00 0.00 88 1011.5
20260906053812 23 322 0.0 0.0 0.00 0.00 0.00 88 1011.3
20260906053307 23 244 1.6 3.2 0.00 0.00 0.00 88 1011.6
20260906052802 23 280 0.0 3.2 0.00 0.00 0.00 88 1011.4
20260906052258 23 242 0.0 0.0 0.00 0.00 0.00 88 1011.7
20260906051755 23 113 0.0 1.6 0.00 0.00 0.00 87 1011.6
20260906051254 23 141 0.0 3.2 0.00 0.00 0.00 87 1011.5
20260906050750 23 319 0.0 3.2 0.00 0.00 0.00 87 1011.7
20260906050245 23 277 1.6 3.2 0.00 0.00 0.00 87 1011.9
20260906045744 23 4 3.2 3.2 0.00 0.00 0.00 87 1011.8
20260906045238 23 315 0.0 1.6 0.00 0.00 0.00 88 1011.9
20260906044734 23 291 0.0 1.6 0.00 0.00 0.00 87 1012.0
20260906044230 23 12 3.2 3.2 0.00 0.00 0.00 87 1012.0
20260906043726 23 32 0.0 3.2 0.00 0.00 0.00 87 1012.0
20260906043222 23 318 0.0 3.2 0.00 0.00 0.00 88 1012.2
20260906042721 24 292 1.6 1.6 0.00 0.00 0.00 87 1012.3
20260906042220 24 277 1.6 3.2 0.00 0.00 0.00 87 1012.0
20260906041716 24 300 1.6 3.2 0.00 0.00 0.00 87 1012.3
20260906041211 24 359 1.6 3.2 0.00 0.00 0.00 88 1012.1
20260906040707 24 240 0.0 3.2 0.00 0.00 0.00 88 1012.3
20260906040202 24 301 0.0 3.2 0.00 0.00 0.00 88 1012.3
20260906035658 24 217 0.0 1.6 0.00 0.00 0.00 88 1012.5
20260906035153 24 334 3.2 3.2 0.00 0.00 0.00 89 1012.3
20260906034652 24 221 3.2 3.2 0.00 0.00 0.00 90 1012.3
20260906034147 24 269 1.6 3.2 0.00 0.00 0.00 90 1012.4
20260906033644 24 277 3.2 3.2 0.00 0.00 0.00 90 1012.3
20260906033143 24 317 1.6 3.2 0.00 0.00 0.00 90 1012.2
20260906032640 24 180 0.0 1.6 0.00 0.00 0.00 91 1012.4
20260906032140 25 287 3.2 4.8 0.00 0.00 0.00 91 1012.3
20260906031636 25 303 3.2 3.2 0.00 0.00 0.00 91 1012.3
20260906031131 25 287 1.6 3.2 0.00 0.00 0.00 90 1012.3
20260906030630 25 282 1.6 3.2 0.00 0.00 0.00 90 1012.2
20260906030126 25 279 0.0 3.2 0.00 0.00 0.00 90 1012.3
20260906025625 25 280 1.6 3.2 0.00 0.00 0.00 89 1012.1
20260906025124 25 317 1.6 4.8 0.00 0.00 0.00 89 1012.2
20260906024619 25 150 0.0 3.2 0.00 0.00 0.00 89 1012.2
20260906024119 25 336 3.2 3.2 0.00 0.00 0.00 88 1012.2
20260906023615 25 248 3.2 3.2 0.00 0.00 0.00 88 1012.1
20260906023109 25 30 1.6 3.2 0.00 0.00 0.00 87 1011.7
20260906022604 25 242 0.0 4.8 0.00 0.00 0.00 86 1012.0
20260906022100 25 232 1.6 4.8 0.00 0.00 0.00 86 1011.6
20260906021556 25 293 3.2 4.8 0.00 0.00 0.00 86 1011.2
20260906021054 25 117 3.2 6.4 0.00 0.00 0.00 86 1011.3
20260906020554 25 317 3.2 4.8 0.00 0.00 0.00 85 1011.3
20260906020054 25 25 0.0 4.8 0.00 0.00 0.00 85 1011.1
20260906015554 25 193 0.0 4.8 0.00 0.00 0.00 85 1011.2
20260906015054 25 188 6.4 6.4 0.00 0.00 0.00 83 1011.5
20260906014554 25 262 3.2 4.8 0.00 0.00 0.00 84 1011.4
20260906014050 25 297 0.0 3.2 0.00 0.00 0.00 85 1011.6
20260906013544 25 309 3.2 6.4 0.00 0.00 0.00 84 1010.7
20260906013040 25 253 6.4 6.4 0.00 0.00 0.00 83 1009.5
20260906012535 25 45 0.0 3.2 0.00 0.00 0.00 85 1009.2
20260906012034 25 86 3.2 3.2 0.00 0.00 0.00 85 1009.3
20260906011531 25 141 3.2 3.2 0.00 0.00 0.00 85 1009.6
20260906011031 25 154 0.0 0.0 0.00 0.00 0.00 85 1010.1
20260906010526 25 103 0.0 3.2 0.00 0.00 0.00 84 1010.6
20260906010022 25 173 0.0 1.6 0.00 0.00 0.00 83 1010.9
20260906005521 25 299 0.0 1.6 0.00 0.00 0.00 81 1011.1
20260906005021 26 93 3.2 3.2 0.05 0.00 0.00 79 1011.2
20260906004520 26 176 1.6 3.2 0.00 0.00 0.00 76 1011.7
20260906004015 27 269 0.0 3.2 0.00 0.00 0.00 73 1011.8
20260906003511 27 253 1.6 11.3 0.00 0.00 0.00 69 1012.1
20260906003007 28 296 3.2 8.0 0.00 0.00 0.00 65 1012.0
20260906002507 30 335 11.3 16.1 0.00 0.00 0.00 64 1012.3
20260906002001 30 279 3.2 3.2 0.00 0.00 0.00 73 1011.9
20260906001457 30 204 4.8 9.7 0.00 0.00 0.00 76 1012.0
20260906000951 30 300 3.2 4.8 0.00 0.00 0.00 80 1012.2
20260906000448 30 299 3.2 3.2 0.00 0.00 0.00 82 1012.1
20260905235942 30 276 1.6 1.6 0.00 0.00 0.00 82 1011.5
20260905235442 30 202 0.0 1.6 0.00 0.00 0.00 81 1011.6
20260905234937 30 218 0.0 3.2 0.00 0.00 0.00 80 1011.9
20260905234432 30 257 0.0 1.6 0.00 0.00 0.00 79 1011.8
20260905233926 30 256 0.0 3.2 0.00 0.00 0.00 79 1011.7
20260905233422 30 299 0.0 0.0 0.00 0.00 0.00 78 1011.5
20260905232920 31 310 0.0 0.0 0.00 0.00 0.00 78 1011.5
20260905232417 31 269 0.0 0.0 0.00 0.00 0.00 78 1011.9
20260905231912 31 212 0.0 3.2 0.00 0.00 0.00 77 1011.7
20260905231408 31 240 3.2 3.2 0.00 0.00 0.00 76 1011.8
20260905230904 31 246 0.0 1.6 0.00 0.00 0.00 75 1011.6
20260905230402 31 249 0.0 3.2 0.00 0.00 0.00 75 1011.7
20260905225901 32 202 1.6 4.8 0.00 0.00 0.00 74 1011.5
20260905225356 32 203 0.0 1.6 0.00 0.00 0.00 73 1011.0
20260905224851 32 294 0.0 3.2 0.00 0.00 0.00 72 1011.2
20260905224348 33 197 1.6 3.2 0.00 0.00 0.00 71 1011.2
20260905223842 33 299 0.0 3.2 0.00 0.00 0.00 71 1011.2
20260905223340 33 334 0.0 4.8 0.00 0.00 0.00 69 1011.2
20260905222839 33 175 0.0 4.8 0.00 0.00 0.00 69 1011.3
20260905222338 33 167 3.2 9.7 0.00 0.00 0.00 67 1010.9
20260905221835 35 195 1.6 12.9 0.00 0.00 0.00 63 1010.8
20260905221331 36 217 0.0 3.2 0.00 0.00 0.00 55 1010.8
20260905220827 36 226 1.6 3.2 0.00 0.00 0.00 56 1010.7
20260905220323 36 213 0.0 3.2 0.00 0.00 0.00 53 1010.8
20260905215822 36 198 3.2 3.2 0.00 0.00 0.00 54 1010.6
20260905215318 36 259 3.2 3.2 0.00 0.00 0.00 52 1010.8
20260905214814 36 212 3.2 4.8 0.00 0.00 0.00 55 1010.7
20260905214309 35 278 3.2 6.4 0.00 0.00 0.00 54 1010.8
20260905213805 36 226 1.6 4.8 0.00 0.00 0.00 56 1010.9
20260905213301 35 206 1.6 4.8 0.00 0.00 0.00 54 1010.6
20260905212801 36 227 3.2 8.0 0.00 0.00 0.00 54 1010.9
20260905212255 36 212 1.6 4.8 0.00 0.00 0.00 53 1010.6
20260905211755 36 279 4.8 6.4 0.00 0.00 0.00 52 1010.8
20260905211250 36 281 3.2 6.4 0.00 0.00 0.00 52 1011.0
20260905210747 36 277 3.2 4.8 0.00 0.00 0.00 52 1010.6
20260905210246 35 279 3.2 6.4 0.00 0.00 0.00 53 1010.6
20260905205745 36 223 3.2 6.4 0.00 0.00 0.00 53 1010.3
20260905205240 36 215 1.6 6.4 0.00 0.00 0.00 55 1010.4
20260905204739 36 242 3.2 4.8 0.00 0.00 0.00 53 1010.5
20260905204235 36 212 3.2 4.8 0.00 0.00 0.00 53 1010.6
20260905203734 36 197 0.0 3.2 0.00 0.00 0.00 53 1010.4
20260905203230 36 203 3.2 4.8 0.00 0.00 0.00 55 1010.3
20260905202726 36 295 1.6 6.4 0.00 0.00 0.00 53 1010.3
20260905202221 36 247 3.2 8.0 0.00 0.00 0.00 53 1010.4
20260905201717 36 254 3.2 4.8 0.00 0.00 0.00 54 1010.3
20260905201216 36 337 4.8 8.0 0.00 0.00 0.00 54 1010.5
20260905200712 36 282 1.6 4.8 0.00 0.00 0.00 54 1010.3
20260905200207 36 262 4.8 8.0 0.00 0.00 0.00 53 1010.7
20260905195705 36 199 6.4 11.3 0.00 0.00 0.00 53 1010.4
20260905195200 36 294 1.6 3.2 0.00 0.00 0.00 53 1010.7
20260905194656 36 265 3.2 3.2 0.00 0.00 0.00 53 1010.7
20260905194156 36 269 0.0 4.8 0.00 0.00 0.00 54 1010.7
20260905193655 35 240 3.2 9.7 0.00 0.00 0.00 56 1010.8
20260905193151 35 294 3.2 4.8 0.00 0.00 0.00 56 1010.8
20260905192646 35 167 3.2 4.8 0.00 0.00 0.00 57 1011.1
20260905192142 35 216 4.8 6.4 0.00 0.00 0.00 59 1011.0
20260905191642 35 228 1.6 4.8 0.00 0.00 0.00 57 1011.0
20260905191140 35 295 4.8 6.4 0.00 0.00 0.00 59 1011.1
20260905190638 34 117 0.0 4.8 0.00 0.00 0.00 58 1011.5
20260905190138 35 275 4.8 9.7 0.00 0.00 0.00 57 1011.6
20260905185631 34 157 1.6 4.8 0.00 0.00 0.00 58 1011.7
20260905185126 35 240 3.2 6.4 0.00 0.00 0.00 59 1011.7
20260905184626 34 210 3.2 6.4 0.00 0.00 0.00 57 1011.8
20260905184125 34 271 3.2 4.8 0.00 0.00 0.00 58 1011.9
20260905183624 34 230 1.6 4.8 0.00 0.00 0.00 60 1012.0
20260905183120 34 146 3.2 6.4 0.00 0.00 0.00 59 1012.1
20260905182619 34 289 1.6 4.8 0.00 0.00 0.00 58 1012.2
20260905182119 34 138 0.0 3.2 0.00 0.00 0.00 59 1012.2
20260905181619 33 325 4.8 6.4 0.00 0.00 0.00 62 1012.4
20260905181119 33 191 4.8 9.7 0.00 0.00 0.00 60 1012.3
20260905180614 34 289 3.2 8.0 0.00 0.00 0.00 58 1012.5
20260905180109 33 27 1.6 3.2 0.00 0.00 0.00 63 1012.5
20260905175608 33 259 6.4 9.7 0.00 0.00 0.00 62 1012.6
20260905175104 33 253 4.8 4.8 0.00 0.00 0.00 65 1012.5
20260905174559 33 275 8.0 8.0 0.00 0.00 0.00 62 1012.4
20260905174054 33 264 3.2 6.4 0.00 0.00 0.00 64 1012.5
20260905173551 32 213 6.4 8.0 0.00 0.00 0.00 67 1012.6
20260905173046 32 251 3.2 9.7 0.00 0.00 0.00 67 1012.8
20260905172544 32 216 3.2 6.4 0.00 0.00 0.00 66 1012.9
20260905172040 32 282 3.2 4.8 0.00 0.00 0.00 68 1013.0
20260905171537 32 318 3.2 4.8 0.00 0.00 0.00 68 1013.1
20260905171032 32 244 4.8 8.0 0.00 0.00 0.00 67 1013.2
20260905170529 32 245 0.0 3.2 0.00 0.00 0.00 66 1013.3
20260905170024 32 237 3.2 4.8 0.00 0.00 0.00 66 1013.3
20260905165519 32 204 3.2 3.2 0.00 0.00 0.00 67 1013.3
20260905165014 32 223 1.6 3.2 0.00 0.00 0.00 68 1013.4
20260905164514 32 291 4.8 8.0 0.00 0.00 0.00 68 1013.6
20260905164008 33 247 4.8 6.4 0.00 0.00 0.00 68 1013.9
20260905163504 32 263 1.6 3.2 0.00 0.00 0.00 68 1013.9
20260905163000 32 264 3.2 6.4 0.00 0.00 0.00 69 1013.8
20260905162455 32 255 4.8 8.0 0.00 0.00 0.00 68 1014.0
20260905161950 32 132 1.6 3.2 0.00 0.00 0.00 67 1013.9
20260905161449 32 192 3.2 4.8 0.00 0.00 0.00 66 1013.9
20260905160947 33 245 4.8 6.4 0.00 0.00 0.00 67 1014.0
20260905160441 32 256 4.8 6.4 0.00 0.00 0.00 70 1014.0
20260905155941 32 253 0.0 4.8 0.00 0.00 0.00 70 1014.2
20260905155436 32 213 3.2 9.7 0.00 0.00 0.00 70 1014.4
20260905154935 31 348 0.0 3.2 0.00 0.00 0.00 73 1014.5
20260905154430 31 228 3.2 8.0 0.00 0.00 0.00 70 1014.5
20260905153926 32 3 4.8 4.8 0.00 0.00 0.00 68 1014.4
20260905153422 32 168 1.6 6.4 0.00 0.00 0.00 71 1014.3
20260905152921 31 263 3.2 8.0 0.00 0.00 0.00 72 1014.6
20260905152421 31 292 3.2 6.4 0.00 0.00 0.00 72 1014.5
20260905151916 31 253 3.2 8.0 0.00 0.00 0.00 73 1014.6
20260905151412 31 246 4.8 6.4 0.00 0.00 0.00 72 1014.6
20260905150907 31 333 0.0 4.8 0.00 0.00 0.00 74 1014.5
20260905150406 31 276 9.7 9.7 0.00 0.00 0.00 73 1014.6
20260905145904 31 336 0.0 6.4 0.00 0.00 0.00 74 1014.5
20260905145403 31 196 3.2 6.4 0.00 0.00 0.00 73 1014.6
20260905144903 31 267 3.2 6.4 0.00 0.00 0.00 73 1014.7
20260905144359 32 356 3.2 4.8 0.00 0.00 0.00 72 1014.7
20260905143857 31 163 1.6 3.2 0.00 0.00 0.00 74 1014.6
20260905143351 30 311 0.0 3.2 0.00 0.00 0.00 79 1014.7
20260905142851 30 255 3.2 4.8 0.00 0.00 0.00 79 1014.7
20260905142350 30 207 1.6 9.7 0.00 0.00 0.00 80 1014.6
20260905141846 30 271 4.8 6.4 0.00 0.00 0.00 80 1014.7
20260905141341 28 285 3.2 8.0 0.00 0.00 0.00 81 1014.7
20260905140837 29 243 4.8 9.7 0.00 0.00 0.00 81 1014.5
20260905140337 29 295 3.2 8.0 0.00 0.00 0.00 82 1014.5
20260905135836 28 222 4.8 9.7 0.00 0.00 0.00 82 1014.7
20260905135332 28 298 3.2 6.4 0.00 0.00 0.00 83 1014.9
20260905134828 28 298 3.2 6.4 0.00 0.00 0.00 83 1014.9
20260905134326 28 275 3.2 3.2 0.00 0.00 0.00 84 1014.8
20260905133826 28 260 3.2 4.8 0.00 0.00 0.00 85 1014.7
20260905133322 28 236 4.8 4.8 0.00 0.00 0.00 87 1014.9
20260905132821 27 311 4.8 4.8 0.00 0.00 0.00 89 1014.8
20260905132317 27 303 0.0 4.8 0.00 0.00 0.00 90 1015.0
20260905131816 27 293 0.0 4.8 0.00 0.00 0.00 90 1015.0
20260905131312 27 309 0.0 1.6 0.00 0.00 0.00 91 1015.0
20260905130807 27 219 4.8 6.4 0.00 0.00 0.00 91 1014.9
20260905130306 27 242 0.0 4.8 0.00 0.00 0.00 93 1014.9
20260905125801 26 276 4.8 4.8 0.00 0.00 0.00 94 1014.9
20260905125256 26 228 4.8 6.4 0.00 0.00 0.00 95 1014.8
20260905124752 26 264 1.6 3.2 0.00 0.00 0.00 96 1015.0
20260905124248 26 248 3.2 4.8 0.00 0.00 0.00 97 1014.9
20260905123743 26 146 0.0 3.2 0.00 0.00 0.00 97 1014.9
20260905123240 25 281 3.2 4.8 0.00 0.00 0.00 98 1014.7
20260905122735 25 284 0.0 4.8 0.00 0.00 0.00 98 1014.7
20260905122234 25 168 0.0 4.8 0.00 0.00 0.00 98 1014.7
20260905121729 25 297 0.0 4.8 0.00 0.00 0.00 98 1014.8
20260905121226 25 287 0.0 3.2 0.00 0.00 0.00 98 1014.6
20260905120724 25 218 0.0 3.2 0.00 0.00 0.00 98 1014.5
20260905120219 25 238 1.6 1.6 0.00 0.00 0.00 98 1014.6
20260905115713 24 262 1.6 1.6 0.00 0.00 0.00 98 1014.8
20260905115208 24 269 0.0 1.6 0.00 0.00 0.00 98 1014.6
20260905114708 24 300 0.0 0.0 0.00 0.00 0.00 98 1014.8
20260905114207 24 283 0.0 1.6 0.00 0.00 0.00 98 1014.6